Year,Month,Day,Hour,Minute,Value (Times are PST for temperature in C)
2016,08,28,00,14,15.10
2016,08,28,00,15,15.10
2016,08,28,00,16,15.10
2016,08,28,00,17,15.10
2016,08,28,00,18,15.10
2016,08,28,00,19,15.10
2016,08,28,00,20,15.10
2016,08,28,00,22,15.10
2016,08,28,00,23,15.10
2016,08,28,00,24,15.10
2016,08,28,00,26,15.10
2016,08,28,00,27,15.10
2016,08,28,00,28,15.10
2016,08,28,00,29,15.10
2016,08,28,00,31,15.10
2016,08,28,00,32,15.20
2016,08,28,00,33,15.20
2016,08,28,00,34,15.20
2016,08,28,00,36,15.20
2016,08,28,00,37,15.20
2016,08,28,00,38,15.20
2016,08,28,00,39,15.20
2016,08,28,00,41,15.20
2016,08,28,00,42,15.20
2016,08,28,00,43,15.20
2016,08,28,00,44,15.20
2016,08,28,00,46,15.20
2016,08,28,00,48,15.20
2016,08,28,00,49,15.20
2016,08,28,00,51,15.20
2016,08,28,00,52,15.20
2016,08,28,00,53,15.20
2016,08,28,00,54,15.20
2016,08,28,00,56,15.20
2016,08,28,00,57,15.20
2016,08,28,00,58,15.20
2016,08,28,00,59,15.20
2016,08,28,01,01,15.20
2016,08,28,01,02,15.20
2016,08,28,01,03,15.20
2016,08,28,01,04,15.20
2016,08,28,01,06,15.20
2016,08,28,01,07,15.20
2016,08,28,01,08,15.20
2016,08,28,01,09,15.20
2016,08,28,01,11,15.20
2016,08,28,01,12,15.20
2016,08,28,01,13,15.20
2016,08,28,01,14,15.20
2016,08,28,01,16,15.20
2016,08,28,01,17,15.20
2016,08,28,01,18,15.20
2016,08,28,01,19,15.20
2016,08,28,01,21,15.20
2016,08,28,01,22,15.20
2016,08,28,01,23,15.20
2016,08,28,01,24,15.20
2016,08,28,01,26,15.10
2016,08,28,01,27,15.10
2016,08,28,01,28,15.10
2016,08,28,01,29,15.10
2016,08,28,01,31,15.10
2016,08,28,01,32,15.10
2016,08,28,01,33,15.10
2016,08,28,01,34,15.10
2016,08,28,01,36,15.10
2016,08,28,01,37,15.10
2016,08,28,01,38,15.10
2016,08,28,01,39,15.00
2016,08,28,01,41,15.00
2016,08,28,01,42,15.00
2016,08,28,01,43,15.00
2016,08,28,01,44,15.00
2016,08,28,01,45,15.00
2016,08,28,01,46,15.00
2016,08,28,01,47,15.00
2016,08,28,01,48,15.00
2016,08,28,01,49,15.00
2016,08,28,01,51,14.90
2016,08,28,01,52,14.90
2016,08,28,01,53,14.90
2016,08,28,01,54,14.90
2016,08,28,01,55,14.90
2016,08,28,01,56,14.90
2016,08,28,01,57,14.90
2016,08,28,01,58,14.90
2016,08,28,01,59,14.90
2016,08,28,02,00,14.80
2016,08,28,02,01,14.80
2016,08,28,02,02,14.80
2016,08,28,02,03,14.80
2016,08,28,02,04,14.80
2016,08,28,02,06,14.80
2016,08,28,02,07,14.80
2016,08,28,02,08,14.80
2016,08,28,02,09,14.80
2016,08,28,02,10,14.80
2016,08,28,02,11,14.80
2016,08,28,02,12,14.70
2016,08,28,02,13,14.70
2016,08,28,02,14,14.70
2016,08,28,02,15,14.70
2016,08,28,02,16,14.70
2016,08,28,02,17,14.60
2016,08,28,02,18,14.60
2016,08,28,02,19,14.60
2016,08,28,02,20,14.60
2016,08,28,02,21,14.60
2016,08,28,02,22,14.60
2016,08,28,02,23,14.50
2016,08,28,02,24,14.50
2016,08,28,02,25,14.50
2016,08,28,02,26,14.50
2016,08,28,02,27,14.50
2016,08,28,02,28,14.50
2016,08,28,02,29,14.50
2016,08,28,02,30,14.40
2016,08,28,02,31,14.40
2016,08,28,02,32,14.40
2016,08,28,02,33,14.40
2016,08,28,02,34,14.40
2016,08,28,02,35,14.40
2016,08,28,02,36,14.40
2016,08,28,02,37,14.40
2016,08,28,02,38,14.30
2016,08,28,02,39,14.30
2016,08,28,02,40,14.30
2016,08,28,02,41,14.30
2016,08,28,02,42,14.30
2016,08,28,02,43,14.30
2016,08,28,02,44,14.30
2016,08,28,02,45,14.20
2016,08,28,02,46,14.20
2016,08,28,02,47,14.20
2016,08,28,02,48,14.20
2016,08,28,02,49,14.20
2016,08,28,02,50,14.20
2016,08,28,02,51,14.20
2016,08,28,02,52,14.20
2016,08,28,02,53,14.20
2016,08,28,02,54,14.20
2016,08,28,02,55,14.20
2016,08,28,02,56,14.20
2016,08,28,02,57,14.20
2016,08,28,02,58,14.20
2016,08,28,02,59,14.20
2016,08,28,03,00,14.10
2016,08,28,03,01,14.10
2016,08,28,03,02,14.10
2016,08,28,03,03,14.00
2016,08,28,03,04,14.00
2016,08,28,03,05,13.90
2016,08,28,03,06,13.80
2016,08,28,03,07,13.80
2016,08,28,03,09,13.70
2016,08,28,03,10,13.60
2016,08,28,03,12,13.50
2016,08,28,03,13,13.50
2016,08,28,03,14,13.50
2016,08,28,03,16,13.40
2016,08,28,03,17,13.40
2016,08,28,03,18,13.40
2016,08,28,03,19,13.30
2016,08,28,03,21,13.30
2016,08,28,03,22,13.30
2016,08,28,03,23,13.30
2016,08,28,03,24,13.30
2016,08,28,03,26,13.30
2016,08,28,03,27,13.30
2016,08,28,03,28,13.20
2016,08,28,03,29,13.20
2016,08,28,03,31,13.20
2016,08,28,03,32,13.20
2016,08,28,03,33,13.20
2016,08,28,03,34,13.20
2016,08,28,03,36,13.10
2016,08,28,03,37,13.10
2016,08,28,03,38,13.10
2016,08,28,03,39,13.10
2016,08,28,03,41,13.00
2016,08,28,03,42,13.00
2016,08,28,03,43,13.00
2016,08,28,03,44,13.00
2016,08,28,03,46,13.00
2016,08,28,03,47,13.00
2016,08,28,03,48,13.00
2016,08,28,03,49,13.00
2016,08,28,03,51,12.90
2016,08,28,03,52,12.90
2016,08,28,03,53,12.90
2016,08,28,03,54,12.90
2016,08,28,03,56,12.90
2016,08,28,03,57,12.90
2016,08,28,03,58,12.90
2016,08,28,03,59,12.90
2016,08,28,04,01,12.90
2016,08,28,04,02,12.90
2016,08,28,04,03,12.90
2016,08,28,04,04,12.90
2016,08,28,04,06,13.00
2016,08,28,04,07,13.00
2016,08,28,04,08,13.00
2016,08,28,04,09,13.00
2016,08,28,04,11,12.90
2016,08,28,04,12,12.90
2016,08,28,04,13,12.90
2016,08,28,04,14,12.90
2016,08,28,04,16,12.90
2016,08,28,04,17,12.80
2016,08,28,04,18,12.80
2016,08,28,04,19,12.80
2016,08,28,04,21,12.80
2016,08,28,04,22,12.80
2016,08,28,04,23,12.80
2016,08,28,04,24,12.80
2016,08,28,04,26,12.90
2016,08,28,04,27,12.90
2016,08,28,04,28,12.90
2016,08,28,04,29,12.90
2016,08,28,04,31,12.90
2016,08,28,04,32,12.90
2016,08,28,04,33,12.90
2016,08,28,04,34,13.00
2016,08,28,04,36,13.00
2016,08,28,04,37,13.00
2016,08,28,04,38,13.00
2016,08,28,04,39,13.00
2016,08,28,04,41,13.00
2016,08,28,04,42,13.00
2016,08,28,04,43,13.00
2016,08,28,04,44,13.00
2016,08,28,04,45,13.00
2016,08,28,04,46,13.00
2016,08,28,04,47,12.90
2016,08,28,04,48,12.90
2016,08,28,04,49,13.00
2016,08,28,04,50,13.00
2016,08,28,04,51,13.00
2016,08,28,04,52,13.00
2016,08,28,04,53,13.00
2016,08,28,04,54,13.00
2016,08,28,04,55,13.00
2016,08,28,04,56,13.00
2016,08,28,04,57,13.00
2016,08,28,04,58,13.00
2016,08,28,04,59,13.00
2016,08,28,05,00,13.00
2016,08,28,05,01,13.10
2016,08,28,05,02,13.10
2016,08,28,05,03,13.10
2016,08,28,05,04,13.10
2016,08,28,05,05,13.10
2016,08,28,05,06,13.10
2016,08,28,05,07,13.10
2016,08,28,05,08,13.10
2016,08,28,05,09,13.10
2016,08,28,05,10,13.20
2016,08,28,05,11,13.20
2016,08,28,05,12,13.20
2016,08,28,05,13,13.20
2016,08,28,05,14,13.20
2016,08,28,05,15,13.20
2016,08,28,05,16,13.20
2016,08,28,05,17,13.20
2016,08,28,05,18,13.20
2016,08,28,05,19,13.20
2016,08,28,05,20,13.20
2016,08,28,05,21,13.20
2016,08,28,05,22,13.20
2016,08,28,05,23,13.20
2016,08,28,05,24,13.20
2016,08,28,05,25,13.20
2016,08,28,05,26,13.30
2016,08,28,05,27,13.30
2016,08,28,05,28,13.30
2016,08,28,05,29,13.30
2016,08,28,05,30,13.30
2016,08,28,05,31,13.30
2016,08,28,05,32,13.30
2016,08,28,05,33,13.30
2016,08,28,05,34,13.30
2016,08,28,05,35,13.30
2016,08,28,05,36,13.30
2016,08,28,05,37,13.30
2016,08,28,05,38,13.30
2016,08,28,05,39,13.30
2016,08,28,05,40,13.30
2016,08,28,05,41,13.30
2016,08,28,05,42,13.30
2016,08,28,05,43,13.30
2016,08,28,05,44,13.30
2016,08,28,05,45,13.30
2016,08,28,05,46,13.30
2016,08,28,05,47,13.30
2016,08,28,05,48,13.30
2016,08,28,05,49,13.30
2016,08,28,05,50,13.30
2016,08,28,05,51,13.30
2016,08,28,05,52,13.30
2016,08,28,05,53,13.30
2016,08,28,05,54,13.30
2016,08,28,05,55,13.30
2016,08,28,05,56,13.30
2016,08,28,05,57,13.30
2016,08,28,05,58,13.30
2016,08,28,05,59,13.30
2016,08,28,06,00,13.30
2016,08,28,06,02,13.30
2016,08,28,06,04,13.30
2016,08,28,06,06,13.30
2016,08,28,06,07,13.30
2016,08,28,06,08,13.30
2016,08,28,06,09,13.30
2016,08,28,06,11,13.30
2016,08,28,06,12,13.30
2016,08,28,06,13,13.30
2016,08,28,06,14,13.30
2016,08,28,06,16,13.30
2016,08,28,06,17,13.30
2016,08,28,06,18,13.30
2016,08,28,06,19,13.30
2016,08,28,06,21,13.30
2016,08,28,06,22,13.30
2016,08,28,06,23,13.30
2016,08,28,06,24,13.30
2016,08,28,06,26,13.30
2016,08,28,06,27,13.30
2016,08,28,06,28,13.30
2016,08,28,06,29,13.30
2016,08,28,06,31,13.30
2016,08,28,06,32,13.20
2016,08,28,06,33,13.20
2016,08,28,06,34,13.20
2016,08,28,06,36,13.20
2016,08,28,06,37,13.20
2016,08,28,06,38,13.20
2016,08,28,06,39,13.20
2016,08,28,06,41,13.20
2016,08,28,06,42,13.20
2016,08,28,06,43,13.20
2016,08,28,06,44,13.20
2016,08,28,06,46,13.20
2016,08,28,06,47,13.10
2016,08,28,06,48,13.10
2016,08,28,06,49,13.10
2016,08,28,06,51,13.10
2016,08,28,06,52,13.10
2016,08,28,06,53,13.10
2016,08,28,06,54,13.10
2016,08,28,06,56,13.10
2016,08,28,06,57,13.10
2016,08,28,06,58,13.10
2016,08,28,06,59,13.10
2016,08,28,07,01,13.10
2016,08,28,07,02,13.10
2016,08,28,07,03,13.10
2016,08,28,07,04,13.20
2016,08,28,07,06,13.10
2016,08,28,07,07,13.10
2016,08,28,07,08,13.20
2016,08,28,07,09,13.20
2016,08,28,07,11,13.20
2016,08,28,07,12,13.20
2016,08,28,07,13,13.20
2016,08,28,07,14,13.20
2016,08,28,07,16,13.20
2016,08,28,07,17,13.20
2016,08,28,07,18,13.30
2016,08,28,07,19,13.30
2016,08,28,07,21,13.30
2016,08,28,07,22,13.30
2016,08,28,07,23,13.30
2016,08,28,07,24,13.30
2016,08,28,07,25,13.30
2016,08,28,07,26,13.30
2016,08,28,07,27,13.30
2016,08,28,07,28,13.30
2016,08,28,07,29,13.30
2016,08,28,07,31,13.40
2016,08,28,07,32,13.40
2016,08,28,07,33,13.40
2016,08,28,07,34,13.40
2016,08,28,07,36,13.50
2016,08,28,07,37,13.50
2016,08,28,07,38,13.50
2016,08,28,07,39,13.50
2016,08,28,07,41,13.60
2016,08,28,07,42,13.60
2016,08,28,07,43,13.60
2016,08,28,07,44,13.60
2016,08,28,07,45,13.60
2016,08,28,07,46,13.60
2016,08,28,07,47,13.60
2016,08,28,07,48,13.60
2016,08,28,07,49,13.60
2016,08,28,07,50,13.60
2016,08,28,07,51,13.60
2016,08,28,07,52,13.60
2016,08,28,07,53,13.60
2016,08,28,07,54,13.60
2016,08,28,07,55,13.60
2016,08,28,07,56,13.60
2016,08,28,07,57,13.60
2016,08,28,07,58,13.60
2016,08,28,07,59,13.60
2016,08,28,08,00,13.60
2016,08,28,08,01,13.70
2016,08,28,08,02,13.70
2016,08,28,08,03,13.70
2016,08,28,08,04,13.70
2016,08,28,08,05,13.70
2016,08,28,08,06,13.70
2016,08,28,08,07,13.70
2016,08,28,08,08,13.70
2016,08,28,08,09,13.70
2016,08,28,08,10,13.70
2016,08,28,08,11,13.70
2016,08,28,08,12,13.70
2016,08,28,08,13,13.70
2016,08,28,08,14,13.70
2016,08,28,08,15,13.70
2016,08,28,08,16,13.70
2016,08,28,08,17,13.70
2016,08,28,08,18,13.70
2016,08,28,08,19,13.80
2016,08,28,08,20,13.80
2016,08,28,08,21,13.80
2016,08,28,08,22,13.80
2016,08,28,08,23,13.80
2016,08,28,08,24,13.80
2016,08,28,08,25,13.80
2016,08,28,08,26,13.80
2016,08,28,08,27,13.80
2016,08,28,08,28,13.80
2016,08,28,08,29,13.80
2016,08,28,08,30,13.90
2016,08,28,08,31,13.90
2016,08,28,08,32,13.90
2016,08,28,08,33,13.90
2016,08,28,08,34,13.90
2016,08,28,08,35,14.00
2016,08,28,08,36,14.00
2016,08,28,08,37,14.00
2016,08,28,08,38,14.00
2016,08,28,08,39,14.00
2016,08,28,08,40,14.00
2016,08,28,08,41,14.00
2016,08,28,08,43,14.10
2016,08,28,08,44,14.10
2016,08,28,08,46,14.10
2016,08,28,08,47,14.10
2016,08,28,08,48,14.20
2016,08,28,08,49,14.20
2016,08,28,08,51,14.20
2016,08,28,08,52,14.20
2016,08,28,08,53,14.20
2016,08,28,08,54,14.20
2016,08,28,08,56,14.20
2016,08,28,08,57,14.20
2016,08,28,08,58,14.20
2016,08,28,08,59,14.20
2016,08,28,09,01,14.20
2016,08,28,09,02,14.20
2016,08,28,09,03,14.20
2016,08,28,09,04,14.20
2016,08,28,09,06,14.20
2016,08,28,09,07,14.20
2016,08,28,09,08,14.20
2016,08,28,09,09,14.20
2016,08,28,09,11,14.20
2016,08,28,09,12,14.20
2016,08,28,09,13,14.20
2016,08,28,09,14,14.20
2016,08,28,09,16,14.20
2016,08,28,09,17,14.20
2016,08,28,09,18,14.30
2016,08,28,09,19,14.30
2016,08,28,09,21,14.30
2016,08,28,09,22,14.30
2016,08,28,09,23,14.30
2016,08,28,09,24,14.30
2016,08,28,09,26,14.30
2016,08,28,09,27,14.30
2016,08,28,09,28,14.40
2016,08,28,09,29,14.40
2016,08,28,09,31,14.40
2016,08,28,09,32,14.40
2016,08,28,09,33,14.40
2016,08,28,09,34,14.40
2016,08,28,09,36,14.50
2016,08,28,09,37,14.50
2016,08,28,09,38,14.50
2016,08,28,09,39,14.50
2016,08,28,09,41,14.50
2016,08,28,09,42,14.50
2016,08,28,09,43,14.50
2016,08,28,09,44,14.50
2016,08,28,09,46,14.60
2016,08,28,09,47,14.60
2016,08,28,09,48,14.60
2016,08,28,09,49,14.60
2016,08,28,09,51,14.50
2016,08,28,09,52,14.50
2016,08,28,09,53,14.50
2016,08,28,09,54,14.50
2016,08,28,09,56,14.60
2016,08,28,09,57,14.60
2016,08,28,09,58,14.60
2016,08,28,09,59,14.60
2016,08,28,10,01,14.60
2016,08,28,10,02,14.50
2016,08,28,10,03,14.50
2016,08,28,10,04,14.50
2016,08,28,10,06,14.50
2016,08,28,10,07,14.50
2016,08,28,10,08,14.50
2016,08,28,10,09,14.50
2016,08,28,10,11,14.50
2016,08,28,10,12,14.50
2016,08,28,10,13,14.50
2016,08,28,10,14,14.60
2016,08,28,10,15,14.60
2016,08,28,10,16,14.60
2016,08,28,10,17,14.60
2016,08,28,10,18,14.70
2016,08,28,10,19,14.70
2016,08,28,10,20,14.70
2016,08,28,10,21,14.80
2016,08,28,10,22,14.80
2016,08,28,10,23,14.80
2016,08,28,10,24,14.80
2016,08,28,10,25,14.90
2016,08,28,10,26,14.90
2016,08,28,10,27,15.00
2016,08,28,10,28,15.00
2016,08,28,10,29,15.00
2016,08,28,10,30,15.10
2016,08,28,10,31,15.10
2016,08,28,10,32,15.10
2016,08,28,10,33,15.20
2016,08,28,10,34,15.20
2016,08,28,10,36,15.20
2016,08,28,10,37,15.30
2016,08,28,10,38,15.30
2016,08,28,10,39,15.30
2016,08,28,10,40,15.30
2016,08,28,10,41,15.30
2016,08,28,10,42,15.40
2016,08,28,10,43,15.40
2016,08,28,10,44,15.50
2016,08,28,10,45,15.50
2016,08,28,10,46,15.60
2016,08,28,10,47,15.60
2016,08,28,10,48,15.60
2016,08,28,10,49,15.70
2016,08,28,10,50,15.70
2016,08,28,10,51,15.70
2016,08,28,10,52,15.70
2016,08,28,10,53,15.70
2016,08,28,10,54,15.70
2016,08,28,10,55,15.70
2016,08,28,10,56,15.70
2016,08,28,10,57,15.60
2016,08,28,10,58,15.60
2016,08,28,10,59,15.60
2016,08,28,11,00,15.60
2016,08,28,11,01,15.60
2016,08,28,11,02,15.60
2016,08,28,11,03,15.60
2016,08,28,11,04,15.60
2016,08,28,11,05,15.60
2016,08,28,11,06,15.70
2016,08,28,11,07,15.70
2016,08,28,11,08,15.70
2016,08,28,11,09,15.70
2016,08,28,11,10,15.70
2016,08,28,11,11,15.70
2016,08,28,11,12,15.70
2016,08,28,11,13,15.60
2016,08,28,11,14,15.60
2016,08,28,11,15,15.60
2016,08,28,11,16,15.50
2016,08,28,11,17,15.50
2016,08,28,11,18,15.50
2016,08,28,11,19,15.50
2016,08,28,11,20,15.50
2016,08,28,11,21,15.50
2016,08,28,11,22,15.50
2016,08,28,11,23,15.60
2016,08,28,11,24,15.60
2016,08,28,11,25,15.60
2016,08,28,11,26,15.60
2016,08,28,11,27,15.60
2016,08,28,11,28,15.70
2016,08,28,11,29,15.70
2016,08,28,11,30,15.70
2016,08,28,11,31,15.70
2016,08,28,11,32,15.70
2016,08,28,11,33,15.70
2016,08,28,11,34,15.80
2016,08,28,11,35,15.80
2016,08,28,11,36,15.80
2016,08,28,11,37,15.80
2016,08,28,11,38,15.80
2016,08,28,11,39,15.80
2016,08,28,11,41,15.90
2016,08,28,11,42,15.90
2016,08,28,11,43,16.10
2016,08,28,11,44,16.10
2016,08,28,11,46,16.10
2016,08,28,11,47,16.10
2016,08,28,11,48,16.20
2016,08,28,11,49,16.20
2016,08,28,11,51,16.30
2016,08,28,11,52,16.30
2016,08,28,11,53,16.30
2016,08,28,11,54,16.20
2016,08,28,11,56,16.20
2016,08,28,11,57,16.10
2016,08,28,11,58,16.10
2016,08,28,11,59,16.10
2016,08,28,12,01,15.90
2016,08,28,12,02,15.80
2016,08,28,12,03,15.80
2016,08,28,12,04,15.80
2016,08,28,12,06,15.70
2016,08,28,12,07,15.70
2016,08,28,12,08,15.70
2016,08,28,12,09,15.60
2016,08,28,12,11,15.60
2016,08,28,12,12,15.50
2016,08,28,12,13,15.50
2016,08,28,12,14,15.50
2016,08,28,12,16,15.50
2016,08,28,12,17,15.50
2016,08,28,12,18,15.50
2016,08,28,12,19,15.50
2016,08,28,12,21,15.50
2016,08,28,12,22,15.50
2016,08,28,12,23,15.50
2016,08,28,12,24,15.50
2016,08,28,12,26,15.50
2016,08,28,12,27,15.50
2016,08,28,12,28,15.60
2016,08,28,12,29,15.60
2016,08,28,12,31,15.70
2016,08,28,12,32,15.70
2016,08,28,12,33,15.80
2016,08,28,12,34,15.80
2016,08,28,12,36,15.80
2016,08,28,12,37,15.80
2016,08,28,12,38,15.80
2016,08,28,12,39,15.90
2016,08,28,12,41,15.90
2016,08,28,12,42,16.10
2016,08,28,12,43,16.10
2016,08,28,12,44,16.10
2016,08,28,12,46,16.10
2016,08,28,12,47,16.10
2016,08,28,12,48,16.10
2016,08,28,12,49,16.10
2016,08,28,12,51,16.10
2016,08,28,12,52,16.10
2016,08,28,12,53,16.10
2016,08,28,12,54,16.10
2016,08,28,12,56,16.10
2016,08,28,12,57,16.10
2016,08,28,12,58,16.10
2016,08,28,12,59,16.10
2016,08,28,13,01,15.90
2016,08,28,13,02,15.80
2016,08,28,13,03,15.80
2016,08,28,13,04,15.80
2016,08,28,13,06,15.70
2016,08,28,13,07,15.70
2016,08,28,13,08,15.60
2016,08,28,13,09,15.60
2016,08,28,13,11,15.60
2016,08,28,13,12,15.50
2016,08,28,13,13,15.50
2016,08,28,13,14,15.50
2016,08,28,13,15,15.50
2016,08,28,13,16,15.50
2016,08,28,13,17,15.40
2016,08,28,13,18,15.40
2016,08,28,13,19,15.40
2016,08,28,13,20,15.40
2016,08,28,13,21,15.30
2016,08,28,13,22,15.30
2016,08,28,13,23,15.30
2016,08,28,13,24,15.30
2016,08,28,13,25,15.30
2016,08,28,13,26,15.30
2016,08,28,13,27,15.30
2016,08,28,13,28,15.30
2016,08,28,13,29,15.30
2016,08,28,13,30,15.30
2016,08,28,13,31,15.30
2016,08,28,13,32,15.20
2016,08,28,13,33,15.20
2016,08,28,13,34,15.10
2016,08,28,13,35,15.10
2016,08,28,13,36,15.00
2016,08,28,13,37,15.00
2016,08,28,13,38,15.00
2016,08,28,13,39,14.90
2016,08,28,13,40,14.90
2016,08,28,13,41,14.90
2016,08,28,13,42,14.80
2016,08,28,13,43,14.80
2016,08,28,13,44,14.80
2016,08,28,13,45,14.80
2016,08,28,13,46,14.80
2016,08,28,13,47,14.80
2016,08,28,13,48,14.70
2016,08,28,13,49,14.70
2016,08,28,13,50,14.70
2016,08,28,13,51,14.70
2016,08,28,13,52,14.70
2016,08,28,13,53,14.70
2016,08,28,13,54,14.70
2016,08,28,13,56,14.70
2016,08,28,13,57,14.70
2016,08,28,13,58,14.60
2016,08,28,13,59,14.60
2016,08,28,14,00,14.60
2016,08,28,14,01,14.60
2016,08,28,14,02,14.60
2016,08,28,14,03,14.60
2016,08,28,14,04,14.60
2016,08,28,14,05,14.50
2016,08,28,14,06,14.50
2016,08,28,14,07,14.50
2016,08,28,14,08,14.50
2016,08,28,14,09,14.50
2016,08,28,14,10,14.50
2016,08,28,14,11,14.50
2016,08,28,14,12,14.50
2016,08,28,14,13,14.50
2016,08,28,14,14,14.50
2016,08,28,14,15,14.50
2016,08,28,14,16,14.50
2016,08,28,14,17,14.50
2016,08,28,14,18,14.50
2016,08,28,14,19,14.50
2016,08,28,14,20,14.50
2016,08,28,14,21,14.40
2016,08,28,14,22,14.40
2016,08,28,14,23,14.40
2016,08,28,14,24,14.40
2016,08,28,14,25,14.40
2016,08,28,14,26,14.40
2016,08,28,14,27,14.40
2016,08,28,14,28,14.40
2016,08,28,14,29,14.40
2016,08,28,14,30,14.40
2016,08,28,14,31,14.40
2016,08,28,14,33,14.40
2016,08,28,14,34,14.40
2016,08,28,14,36,14.40
2016,08,28,14,37,14.40
2016,08,28,14,38,14.40
2016,08,28,14,39,14.40
2016,08,28,14,41,14.40
2016,08,28,14,42,14.40
2016,08,28,14,43,14.40
2016,08,28,14,44,14.30
2016,08,28,14,46,14.30
2016,08,28,14,48,14.20
2016,08,28,14,49,14.20
2016,08,28,14,51,14.20
2016,08,28,14,52,14.20
2016,08,28,14,53,14.20
2016,08,28,14,54,14.20
2016,08,28,14,56,14.10
2016,08,28,14,57,14.10
2016,08,28,14,58,14.10
2016,08,28,14,59,14.10
2016,08,28,15,01,14.00
2016,08,28,15,02,14.00
2016,08,28,15,03,14.00
2016,08,28,15,04,14.00
2016,08,28,15,06,14.00
2016,08,28,15,07,14.00
2016,08,28,15,08,13.90
2016,08,28,15,09,13.90
2016,08,28,15,11,13.90
2016,08,28,15,12,13.80
2016,08,28,15,13,13.80
2016,08,28,15,14,13.80
2016,08,28,15,16,13.80
2016,08,28,15,17,13.80
2016,08,28,15,18,13.80
2016,08,28,15,19,13.80
2016,08,28,15,21,13.80
2016,08,28,15,22,13.80
2016,08,28,15,24,13.80
2016,08,28,15,26,13.80
2016,08,28,15,27,13.80
2016,08,28,15,28,13.80
2016,08,28,15,29,13.80
2016,08,28,15,31,13.80
2016,08,28,15,32,13.80
2016,08,28,15,33,13.80
2016,08,28,15,34,13.80
2016,08,28,15,36,13.80
2016,08,28,15,37,13.80
2016,08,28,15,38,13.80
2016,08,28,15,39,13.80
2016,08,28,15,41,13.80
2016,08,28,15,42,13.80
2016,08,28,15,43,13.90
2016,08,28,15,44,13.90
2016,08,28,15,46,13.90
2016,08,28,15,47,14.00
2016,08,28,15,48,14.00
2016,08,28,15,49,14.10
2016,08,28,15,50,14.10
2016,08,28,15,52,14.20
2016,08,28,15,53,14.20
2016,08,28,15,54,14.20
2016,08,28,15,56,14.20
2016,08,28,15,57,14.20
2016,08,28,15,58,14.20
2016,08,28,15,59,14.20
2016,08,28,16,00,14.20
2016,08,28,16,01,14.20
2016,08,28,16,02,14.20
2016,08,28,16,03,14.20
2016,08,28,16,04,14.20
2016,08,28,16,06,14.20
2016,08,28,16,07,14.20
2016,08,28,16,08,14.20
2016,08,28,16,09,14.20
2016,08,28,16,11,14.20
2016,08,28,16,12,14.20
2016,08,28,16,13,14.20
2016,08,28,16,14,14.30
2016,08,28,16,15,14.30
2016,08,28,16,16,14.30
2016,08,28,16,17,14.40
2016,08,28,16,18,14.40
2016,08,28,16,19,14.40
2016,08,28,16,21,14.50
2016,08,28,16,22,14.50
2016,08,28,16,23,14.50
2016,08,28,16,24,14.50
2016,08,28,16,25,14.50
2016,08,28,16,26,14.50
2016,08,28,16,27,14.50
2016,08,28,16,28,14.50
2016,08,28,16,29,14.50
2016,08,28,16,30,14.50
2016,08,28,16,31,14.50
2016,08,28,16,32,14.50
2016,08,28,16,33,14.50
2016,08,28,16,34,14.50
2016,08,28,16,35,14.50
2016,08,28,16,36,14.50
2016,08,28,16,37,14.50
2016,08,28,16,38,14.50
2016,08,28,16,39,14.50
2016,08,28,16,40,14.50
2016,08,28,16,41,14.50
2016,08,28,16,42,14.40
2016,08,28,16,43,14.40
2016,08,28,16,44,14.40
2016,08,28,16,45,14.40
2016,08,28,16,46,14.30
2016,08,28,16,47,14.30
2016,08,28,16,48,14.30
2016,08,28,16,49,14.30
2016,08,28,16,50,14.30
2016,08,28,16,51,14.30
2016,08,28,16,52,14.30
2016,08,28,16,53,14.30
2016,08,28,16,54,14.40
2016,08,28,16,55,14.40
2016,08,28,16,56,14.40
2016,08,28,16,57,14.40
2016,08,28,16,58,14.40
2016,08,28,16,59,14.40
2016,08,28,17,00,14.50
2016,08,28,17,01,14.50
2016,08,28,17,02,14.50
2016,08,28,17,03,14.50
2016,08,28,17,04,14.60
2016,08,28,17,05,14.60
2016,08,28,17,06,14.60
2016,08,28,17,07,14.60
2016,08,28,17,08,14.60
2016,08,28,17,09,14.60
2016,08,28,17,11,14.60
2016,08,28,17,12,14.60
2016,08,28,17,13,14.60
2016,08,28,17,14,14.60
2016,08,28,17,15,14.60
2016,08,28,17,16,14.70
2016,08,28,17,17,14.70
2016,08,28,17,18,14.70
2016,08,28,17,19,14.70
2016,08,28,17,20,14.70
2016,08,28,17,21,14.80
2016,08,28,17,22,14.80
2016,08,28,17,23,14.80
2016,08,28,17,24,14.80
2016,08,28,17,25,14.80
2016,08,28,17,27,14.80
2016,08,28,17,29,14.80
2016,08,28,17,31,14.70
2016,08,28,17,32,14.70
2016,08,28,17,33,14.70
2016,08,28,17,34,14.60
2016,08,28,17,36,14.60
2016,08,28,17,37,14.60
2016,08,28,17,38,14.70
2016,08,28,17,39,14.70
2016,08,28,17,41,14.80
2016,08,28,17,42,14.80
2016,08,28,17,43,14.80
2016,08,28,17,44,14.80
2016,08,28,17,46,14.80
2016,08,28,17,47,14.90
2016,08,28,17,48,14.90
2016,08,28,17,49,14.90
2016,08,28,17,51,15.00
2016,08,28,17,52,15.00
2016,08,28,17,53,15.00
2016,08,28,17,54,15.00
2016,08,28,17,56,14.90
2016,08,28,17,57,14.80
2016,08,28,17,58,14.80
2016,08,28,17,59,14.70
2016,08,28,18,01,14.50
2016,08,28,18,02,14.40
2016,08,28,18,03,14.30
2016,08,28,18,04,14.30
2016,08,28,18,06,14.20
2016,08,28,18,07,14.20
2016,08,28,18,08,14.20
2016,08,28,18,09,14.20
2016,08,28,18,11,14.20
2016,08,28,18,12,14.20
2016,08,28,18,13,14.20
2016,08,28,18,14,14.20
2016,08,28,18,16,14.20
2016,08,28,18,17,14.20
2016,08,28,18,18,14.20
2016,08,28,18,19,14.30
2016,08,28,18,21,14.30
2016,08,28,18,22,14.20
2016,08,28,18,23,14.20
2016,08,28,18,24,14.20
2016,08,28,18,26,14.20
2016,08,28,18,27,14.10
2016,08,28,18,28,14.10
2016,08,28,18,29,14.10
2016,08,28,18,31,14.00
2016,08,28,18,32,14.00
2016,08,28,18,33,14.00
2016,08,28,18,34,14.00
2016,08,28,18,36,14.00
2016,08,28,18,37,14.10
2016,08,28,18,38,14.10
2016,08,28,18,39,14.10
2016,08,28,18,41,14.10
2016,08,28,18,42,14.20
2016,08,28,18,43,14.20
2016,08,28,18,44,14.20
2016,08,28,18,45,14.20
2016,08,28,18,46,14.20
2016,08,28,18,47,14.20
2016,08,28,18,48,14.20
2016,08,28,18,49,14.20
2016,08,28,18,51,14.30
2016,08,28,18,52,14.30
2016,08,28,18,53,14.30
2016,08,28,18,54,14.30
2016,08,28,18,55,14.30
2016,08,28,18,56,14.30
2016,08,28,18,57,14.30
2016,08,28,18,58,14.20
2016,08,28,18,59,14.20
2016,08,28,19,00,14.20
2016,08,28,19,01,14.20
2016,08,28,19,02,14.20
2016,08,28,19,03,14.20
2016,08,28,19,04,14.20
2016,08,28,19,06,14.10
2016,08,28,19,07,14.00
2016,08,28,19,08,13.90
2016,08,28,19,09,13.90
2016,08,28,19,10,13.80
2016,08,28,19,11,13.70
2016,08,28,19,12,13.70
2016,08,28,19,13,13.70
2016,08,28,19,14,13.70
2016,08,28,19,15,13.70
2016,08,28,19,16,13.60
2016,08,28,19,17,13.60
2016,08,28,19,18,13.60
2016,08,28,19,19,13.60
2016,08,28,19,20,13.50
2016,08,28,19,21,13.50
2016,08,28,19,22,13.50
2016,08,28,19,23,13.40
2016,08,28,19,24,13.40
2016,08,28,19,25,13.30
2016,08,28,19,26,13.30
2016,08,28,19,27,13.30
2016,08,28,19,28,13.30
2016,08,28,19,29,13.30
2016,08,28,19,30,13.30
2016,08,28,19,31,13.40
2016,08,28,19,32,13.40
2016,08,28,19,33,13.50
2016,08,28,19,34,13.50
2016,08,28,19,35,13.60
2016,08,28,19,36,13.70
2016,08,28,19,37,13.70
2016,08,28,19,38,13.70
2016,08,28,19,39,13.70
2016,08,28,19,40,13.80
2016,08,28,19,41,13.80
2016,08,28,19,42,13.90
2016,08,28,19,43,13.90
2016,08,28,19,44,13.90
2016,08,28,19,45,14.00
2016,08,28,19,46,14.00
2016,08,28,19,47,14.10
2016,08,28,19,48,14.10
2016,08,28,19,49,14.10
2016,08,28,19,50,14.10
2016,08,28,19,51,14.10
2016,08,28,19,52,14.10
2016,08,28,19,53,14.10
2016,08,28,19,54,14.00
2016,08,28,19,55,14.00
2016,08,28,19,56,13.90
2016,08,28,19,57,13.90